FW4624 Weather Reports


Display with metric or nautical units.
time (UTC)temp
F
wind
direction
speed
MPH
gust
MPH
rain 1hr
in
rain 24hr
in
rain mn
in
humidity
%
barometer
mb
20260507013546 50 333 1.0 4.0 0.00 0.16 0.00 91 1010.5
20260507013045 50 333 1.0 4.0 0.00 0.16 0.00 91 1010.5
20260507012545 50 333 1.0 3.0 0.00 0.16 0.00 91 1010.4
20260507012043 50 333 1.0 4.0 0.00 0.16 0.00 91 1010.4
20260507011542 49 333 2.0 4.0 0.00 0.16 0.00 91 1010.3
20260507011042 50 333 2.0 5.0 0.00 0.16 0.00 90 1010.5
20260507010541 50 333 1.0 5.0 0.00 0.16 0.00 90 1010.4
20260507010041 50 333 0.0 4.0 0.00 0.16 0.00 90 1010.5
20260507005541 50 333 1.0 5.0 0.00 0.54 0.00 90 1010.4
20260507005040 50 333 1.0 5.0 0.00 0.54 0.00 90 1010.4
20260507004544 50 333 1.0 4.0 0.00 0.54 0.00 90 1010.5
20260507004039 50 333 1.0 4.0 0.00 0.54 0.00 89 1010.4
20260507003538 50 333 1.0 5.0 0.00 0.54 0.00 89 1010.4
20260507003038 50 332 1.0 5.0 0.00 0.54 0.00 89 1010.3
20260507002538 50 337 1.0 6.0 0.00 0.54 0.00 89 1010.2
20260507002038 50 338 2.0 6.0 0.00 0.54 0.00 89 1010.2
20260507001546 50 337 1.0 8.0 0.00 0.54 0.00 89 1010.3
20260507001037 50 337 2.0 8.0 0.00 0.54 0.00 89 1010.2
20260507000536 50 338 2.0 6.0 0.00 0.54 0.00 88 1010.1
20260507000037 50 336 1.0 5.0 0.00 0.54 0.00 88 1010.1
20260506235537 50 336 2.0 5.0 0.00 0.60 0.00 88 1010.2
20260506235035 51 337 1.0 4.0 0.00 0.60 0.00 88 1010.2
20260506234535 51 337 0.0 3.0 0.00 0.60 0.00 88 1010.2
20260506234038 51 337 0.0 5.0 0.00 0.60 0.00 88 1010.1
20260506233535 51 337 2.0 6.0 0.00 0.60 0.00 88 1010.0
20260506233034 51 337 2.0 8.0 0.00 0.60 0.00 88 1010.0
20260506232535 51 329 1.0 8.0 0.00 0.60 0.00 88 1010.1
20260506232032 51 340 2.0 6.0 0.00 0.60 0.00 88 1009.9
20260506231531 51 340 2.0 4.0 0.00 0.60 0.00 89 1009.8
20260506231031 51 340 2.0 5.0 0.00 0.60 0.00 89 1009.8
20260506230531 51 340 2.0 6.0 0.00 0.60 0.00 89 1009.8
20260506230030 51 340 2.0 6.0 0.00 0.60 0.00 89 1009.8
20260506225530 51 340 2.0 5.0 0.00 0.60 0.00 89 1009.8
20260506225029 51 340 2.0 6.0 0.00 0.60 0.00 89 1009.9
20260506224530 51 339 1.0 6.0 0.00 0.60 0.00 89 1009.8
20260506224029 51 347 1.0 5.0 0.00 0.60 0.00 89 1009.7
20260506223528 51 347 2.0 5.0 0.00 0.60 0.00 89 1009.7
20260506223028 51 347 1.0 5.0 0.00 0.60 0.00 89 1009.8
20260506222531 51 347 2.0 6.0 0.00 0.60 0.00 89 1009.7
20260506222028 51 341 3.0 6.0 0.00 0.60 0.00 89 1009.6
20260506221526 51 340 2.0 6.0 0.00 0.60 0.00 89 1009.6
20260506221026 51 342 2.0 8.0 0.00 0.60 0.00 89 1009.6
20260506220525 51 333 2.0 5.0 0.00 0.60 0.00 89 1009.3
20260506220034 51 329 1.0 5.0 0.00 0.60 0.00 89 1009.4
20260506215523 52 329 1.0 5.0 0.00 0.60 0.60 89 1009.3
20260506215024 52 329 1.0 4.0 0.00 0.60 0.60 89 1009.2
20260506214526 52 329 2.0 5.0 0.00 0.60 0.60 89 1009.3
20260506214023 52 328 2.0 5.0 0.00 0.60 0.60 88 1009.3
20260506213522 52 355 2.0 6.0 0.00 0.60 0.60 88 1009.3
20260506213025 52 355 4.0 6.0 0.00 0.60 0.60 89 1009.3
20260506212520 52 340 1.0 6.0 0.00 0.60 0.60 89 1009.2
20260506212020 52 340 3.0 8.0 0.00 0.60 0.60 89 1009.1
20260506211520 52 342 3.0 9.0 0.00 0.60 0.60 89 1009.0
20260506211020 52 337 2.0 9.0 0.00 0.60 0.60 89 1009.0
20260506210518 52 333 3.0 6.0 0.00 0.60 0.60 89 1008.9
20260506210019 52 338 3.0 6.0 0.00 0.60 0.60 90 1008.9
20260506205517 52 344 2.0 6.0 0.00 0.61 0.60 90 1008.9
20260506205017 52 346 2.0 6.0 0.00 0.61 0.60 90 1008.8
20260506204517 52 346 1.0 5.0 0.00 0.61 0.60 90 1008.8
20260506204017 53 346 2.0 5.0 0.00 0.61 0.60 90 1008.8
20260506203516 53 343 2.0 5.0 0.00 0.61 0.60 90 1008.9
20260506203020 53 344 2.0 5.0 0.00 0.61 0.60 90 1008.8
20260506202514 53 343 3.0 8.0 0.00 0.61 0.60 90 1008.7
20260506202017 53 344 3.0 8.0 0.00 0.61 0.60 90 1008.6
20260506201512 53 338 2.0 4.0 0.00 0.61 0.60 90 1008.6
20260506201012 53 337 1.0 4.0 0.00 0.61 0.60 90 1008.5
20260506200511 53 337 2.0 4.0 0.00 0.61 0.60 90 1008.5
20260506200015 53 336 2.0 6.0 0.00 0.61 0.60 90 1008.5
20260506195510 53 336 2.0 6.0 0.00 0.61 0.60 90 1008.4
20260506195011 53 336 2.0 8.0 0.00 0.61 0.60 90 1008.3
20260506194509 53 331 4.0 8.0 0.00 0.61 0.60 90 1008.0
20260506194008 54 342 2.0 5.0 0.01 0.61 0.60 90 1008.1
20260506193511 54 342 2.0 5.0 0.01 0.61 0.60 90 1008.1
20260506193006 54 340 1.0 5.0 0.01 0.61 0.60 90 1007.9
20260506192505 54 340 1.0 6.0 0.01 0.61 0.60 90 1007.8
20260506192005 54 340 3.0 6.0 0.01 0.61 0.60 90 1007.6
20260506191504 54 342 2.0 9.0 0.01 0.61 0.60 90 1007.5
20260506191004 54 339 3.0 9.0 0.01 0.61 0.60 90 1007.5
20260506190504 54 342 3.0 8.0 0.01 0.61 0.60 90 1007.4
20260506190005 54 338 2.0 5.0 0.01 0.61 0.60 90 1007.5
20260506185502 54 338 1.0 6.0 0.01 0.62 0.60 90 1007.4
20260506185002 54 337 1.0 6.0 0.01 0.62 0.60 90 1007.3
20260506184502 55 335 2.0 6.0 0.01 0.62 0.60 90 1007.3
20260506184004 55 333 1.0 4.0 0.01 0.61 0.59 90 1007.3
20260506183501 55 333 1.0 4.0 0.01 0.61 0.59 90 1007.2
20260506183201 55 333 1.0 4.0 0.01 0.61 0.59 90 1007.1
20260506182559 55 333 1.0 5.0 0.01 0.61 0.59 90 1007.1
20260506182059 55 333 1.0 5.0 0.01 0.61 0.59 89 1007.1
20260506181602 56 332 1.0 4.0 0.01 0.61 0.59 89 1007.0
20260506181059 56 336 0.0 3.0 0.01 0.61 0.59 90 1007.0
20260506180559 56 336 1.0 3.0 0.01 0.61 0.59 89 1006.9
20260506180116 56 344 0.0 2.0 0.01 0.61 0.59 89 1006.8
20260506175600 56 345 0.0 6.0 0.01 0.64 0.59 89 1006.9
20260506175103 56 346 1.0 6.0 0.01 0.64 0.59 89 1006.6
20260506174558 56 346 2.0 8.0 0.01 0.64 0.59 88 1006.6
20260506174059 57 347 2.0 8.0 0.00 0.63 0.57 88 1006.7
20260506173558 57 288 1.0 4.0 0.00 0.63 0.57 87 1006.6
20260506173133 57 281 1.0 4.0 0.00 0.63 0.57 86 1006.6
20260506172557 57 280 1.0 6.0 0.00 0.63 0.57 86 1006.5
20260506172057 58 258 2.0 6.0 0.00 0.63 0.57 85 1006.5
20260506171557 58 256 1.0 8.0 0.00 0.63 0.57 85 1006.5
20260506171057 58 256 1.0 8.0 0.00 0.63 0.57 85 1006.4
20260506170558 58 327 1.0 5.0 0.00 0.63 0.57 85 1006.4
20260506170057 59 339 1.0 8.0 0.00 0.63 0.57 85 1006.3
20260506165556 59 348 1.0 8.0 0.00 0.65 0.57 84 1006.2
20260506165056 59 286 1.0 6.0 0.00 0.65 0.57 85 1006.2
20260506164557 59 260 1.0 6.0 0.00 0.65 0.57 85 1006.2
20260506164055 59 328 1.0 5.0 0.00 0.65 0.57 85 1006.1
20260506163557 59 287 1.0 4.0 0.00 0.65 0.57 85 1006.1
20260506163103 59 246 0.0 3.0 0.00 0.65 0.57 86 1006.1
20260506162558 59 246 1.0 3.0 0.00 0.65 0.57 86 1006.1
20260506162055 59 258 0.0 4.0 0.00 0.65 0.57 86 1006.0
20260506161557 59 258 1.0 4.0 0.00 0.65 0.57 87 1006.1
20260506161054 59 259 0.0 1.0 0.00 0.65 0.57 87 1006.1
20260506160554 59 259 0.0 3.0 0.00 0.65 0.57 87 1006.2
20260506160054 59 259 1.0 3.0 0.00 0.65 0.57 87 1006.1
20260506155555 59 259 1.0 3.0 0.04 0.69 0.57 88 1006.0
20260506155054 59 258 0.0 3.0 0.10 0.69 0.57 88 1006.1
20260506154555 59 258 1.0 3.0 0.11 0.69 0.57 87 1006.1
20260506154054 59 258 1.0 5.0 0.11 0.69 0.57 88 1006.0
20260506153556 59 255 1.0 5.0 0.11 0.69 0.57 88 1006.0
20260506153057 59 330 1.0 4.0 0.11 0.69 0.57 89 1006.0
20260506152553 59 330 0.0 4.0 0.11 0.69 0.57 89 1006.0
20260506152053 58 330 1.0 3.0 0.11 0.69 0.57 89 1005.9
20260506151553 58 330 1.0 3.0 0.11 0.69 0.57 89 1005.9
20260506151053 58 330 0.0 4.0 0.11 0.69 0.57 89 1006.0
20260506150557 58 330 1.0 4.0 0.11 0.69 0.57 88 1005.9
20260506150057 58 330 1.0 3.0 0.11 0.69 0.57 87 1005.9
20260506145553 59 329 0.0 3.0 0.07 0.65 0.54 84 1005.9
20260506145052 60 329 1.0 6.0 0.01 0.57 0.48 81 1005.8
20260506144604 61 332 1.0 6.0 0.00 0.56 0.47 80 1005.8
20260506144052 62 330 1.0 9.0 0.00 0.56 0.47 77 1005.7
20260506143552 62 253 0.0 2.0 0.00 0.56 0.47 75 1005.6
20260506143052 62 253 0.0 2.0 0.00 0.56 0.47 73 1005.5
20260506142553 62 253 0.0 9.0 0.00 0.56 0.47 75 1005.4
20260506142051 63 253 1.0 10.0 0.00 0.56 0.47 75 1005.5
20260506141551 63 254 5.0 9.0 0.00 0.56 0.47 73 1005.4
20260506141051 63 238 5.0 10.0 0.00 0.56 0.47 72 1005.5
20260506140552 63 231 4.0 12.0 0.00 0.56 0.47 72 1005.4
20260506140051 63 244 7.0 12.0 0.00 0.56 0.47 71 1005.4
20260506135551 63 215 8.0 12.0 0.00 0.56 0.47 72 1005.4
20260506135052 63 238 6.0 10.0 0.00 0.56 0.47 70 1005.5
20260506134554 64 188 8.0 12.0 0.00 0.56 0.47 70 1005.5
20260506134050 64 195 6.0 12.0 0.00 0.56 0.47 70 1005.5
20260506133550 64 186 6.0 12.0 0.00 0.56 0.47 72 1005.5
20260506133056 64 192 6.0 11.0 0.00 0.56 0.47 70 1005.6
20260506132549 64 227 5.0 10.0 0.00 0.56 0.47 73 1005.6
20260506132051 64 225 6.0 11.0 0.00 0.56 0.47 73 1005.6
20260506131549 63 200 6.0 11.0 0.00 0.56 0.47 72 1005.7
20260506131049 64 204 4.0 10.0 0.00 0.56 0.47 74 1005.7
20260506130549 63 200 5.0 10.0 0.00 0.56 0.47 72 1005.7
20260506130051 64 190 7.0 11.0 0.00 0.56 0.47 73 1005.6
20260506125548 64 173 7.0 11.0 0.00 0.56 0.47 73 1005.7
20260506125048 64 213 6.0 13.0 0.00 0.56 0.47 73 1005.7
20260506124547 64 198 9.0 15.0 0.00 0.56 0.47 69 1005.8
20260506124047 64 248 8.0 12.0 0.00 0.56 0.47 71 1005.7
20260506123547 65 219 7.0 11.0 0.00 0.56 0.47 70 1005.7
20260506123047 65 220 6.0 10.0 0.00 0.56 0.47 70 1005.7
20260506122546 65 207 6.0 12.0 0.00 0.56 0.47 72 1005.7
20260506122045 64 209 7.0 11.0 0.00 0.56 0.47 72 1005.7
20260506121544 63 222 6.0 12.0 0.00 0.56 0.47 72 1005.8
20260506121044 63 220 7.0 12.0 0.00 0.56 0.47 74 1005.8
20260506120544 63 207 7.0 10.0 0.00 0.56 0.47 73 1005.8
20260506120044 62 223 6.0 11.0 0.00 0.56 0.47 73 1005.7
20260506115546 62 224 6.0 11.0 0.00 0.56 0.47 73 1005.8
20260506115043 62 219 4.0 10.0 0.00 0.56 0.47 74 1005.8
20260506114543 63 234 6.0 10.0 0.00 0.56 0.47 74 1005.9
20260506114043 63 198 5.0 10.0 0.00 0.56 0.47 76 1005.8
20260506113543 63 227 5.0 12.0 0.00 0.56 0.47 74 1005.9
20260506113043 63 240 6.0 12.0 0.00 0.56 0.47 74 1005.8
20260506112542 63 187 4.0 9.0 0.00 0.56 0.47 75 1005.9
20260506112043 63 220 6.0 9.0 0.00 0.56 0.47 76 1005.9
20260506111540 62 180 4.0 9.0 0.00 0.56 0.47 76 1005.9
20260506111040 62 209 4.0 10.0 0.00 0.56 0.47 76 1005.9
20260506110540 62 182 4.0 9.0 0.00 0.56 0.47 77 1005.8
20260506110042 62 207 4.0 8.0 0.00 0.56 0.47 76 1005.9
20260506105542 62 232 6.0 11.0 0.00 0.56 0.47 73 1005.9
20260506105043 62 198 5.0 11.0 0.00 0.56 0.47 73 1005.9
20260506104546 62 215 4.0 11.0 0.00 0.56 0.47 75 1005.9
20260506104040 62 218 7.0 10.0 0.00 0.56 0.47 74 1005.9
20260506103539 62 221 6.0 11.0 0.00 0.56 0.47 74 1005.9
20260506103041 62 242 6.0 11.0 0.00 0.56 0.47 75 1006.0
20260506102542 62 240 7.0 12.0 0.00 0.56 0.47 75 1006.0
20260506102038 62 258 7.0 12.0 0.00 0.56 0.47 75 1005.9
20260506101537 62 221 6.0 11.0 0.00 0.56 0.47 76 1006.0
20260506101037 62 208 6.0 12.0 0.00 0.56 0.47 78 1006.0
20260506100537 62 240 7.0 12.0 0.00 0.56 0.47 76 1005.9
20260506100037 62 243 6.0 10.0 0.00 0.56 0.47 77 1006.0
20260506095537 61 202 5.0 10.0 0.00 0.56 0.47 77 1006.0
20260506095036 61 178 5.0 11.0 0.00 0.56 0.47 76 1006.1
20260506094536 61 223 6.0 12.0 0.00 0.56 0.47 77 1006.0
20260506094036 61 173 8.0 14.0 0.00 0.56 0.47 78 1006.0
20260506093535 61 252 7.0 14.0 0.00 0.56 0.47 78 1006.1
20260506093039 61 192 6.0 15.0 0.00 0.56 0.47 79 1006.0
20260506092535 61 227 5.0 12.0 0.00 0.56 0.47 81 1006.0
20260506092035 61 235 5.0 11.0 0.00 0.56 0.47 79 1006.0
20260506091535 61 207 6.0 12.0 0.00 0.56 0.47 79 1005.9
20260506091035 61 223 6.0 12.0 0.00 0.56 0.47 81 1005.8
20260506090533 61 232 7.0 11.0 0.00 0.56 0.47 81 1005.9
20260506090034 60 205 7.0 11.0 0.00 0.56 0.47 82 1005.9
20260506085533 60 243 8.0 12.0 0.00 0.56 0.47 81 1005.9
20260506085034 60 217 8.0 12.0 0.00 0.56 0.47 82 1005.8
20260506084537 60 194 6.0 14.0 0.00 0.56 0.47 83 1005.9
20260506084036 60 244 8.0 14.0 0.00 0.56 0.47 83 1005.8
20260506083534 60 188 7.0 12.0 0.00 0.56 0.47 84 1005.7
20260506083036 60 202 6.0 14.0 0.00 0.56 0.47 83 1005.7
20260506082533 60 227 9.0 13.0 0.00 0.56 0.47 82 1005.7
20260506082032 61 221 7.0 13.0 0.00 0.56 0.47 82 1005.9
20260506081531 62 248 7.0 14.0 0.00 0.56 0.47 83 1005.9
20260506081031 62 204 7.0 10.0 0.00 0.56 0.47 84 1005.8
20260506080529 61 200 5.0 10.0 0.00 0.56 0.47 86 1005.9
20260506073524 58 236 7.0 12.0 0.00 0.56 0.47 90 1005.8
20260506073022 58 219 4.0 11.0 0.00 0.56 0.47 92 1005.8
20260506072524 58 206 8.0 11.0 0.00 0.56 0.47 92 1005.9
20260506072020 58 254 5.0 11.0 0.00 0.56 0.47 93 1005.9
20260506071520 57 219 6.0 10.0 0.00 0.56 0.47 93 1005.9
20260506071019 57 193 6.0 9.0 0.00 0.56 0.47 93 1005.9
20260506070519 57 231 6.0 11.0 0.00 0.56 0.47 94 1005.7
20260506062517 56 242 5.0 10.0 0.00 0.56 0.47 94 1005.8
20260506062017 57 193 5.0 8.0 0.00 0.56 0.47 94 1005.7
20260506061524 57 198 5.0 9.0 0.00 0.56 0.47 94 1005.7
20260506061018 56 196 5.0 9.0 0.00 0.56 0.47 94 1005.7
20260506060517 56 197 4.0 7.0 0.00 0.56 0.47 95 1005.6
20260506051015 54 200 1.0 5.0 0.00 0.56 0.47 94 1005.5
20260506050515 54 201 1.0 5.0 0.00 0.56 0.47 94 1005.5
20260506045013 54 201 2.0 4.0 0.00 0.56 0.47 95 1005.5
20260506044519 54 202 2.0 4.0 0.00 0.56 0.47 95 1005.7
20260506044013 54 203 2.0 5.0 0.00 0.56 0.47 95 1005.6
20260506043515 54 203 1.0 4.0 0.00 0.56 0.47 94 1005.6
20260506043019 54 204 1.0 5.0 0.00 0.56 0.47 94 1005.6
20260506042514 54 204 1.0 5.0 0.00 0.56 0.47 95 1005.6
20260506042013 54 204 1.0 4.0 0.00 0.56 0.47 95 1005.6
20260506041516 54 204 2.0 6.0 0.00 0.56 0.47 95 1005.6
20260506041015 54 203 3.0 8.0 0.00 0.56 0.47 95 1005.6
20260506040514 54 205 3.0 8.0 0.00 0.56 0.47 95 1005.6
20260506040012 54 198 3.0 8.0 0.00 0.56 0.47 95 1005.6
20260506035511 54 194 3.0 8.0 0.00 0.56 0.47 95 1005.6
20260506035013 54 194 4.0 8.0 0.00 0.56 0.47 95 1005.6
20260506034511 54 200 3.0 7.0 0.00 0.56 0.47 94 1005.6
20260506034010 54 198 3.0 7.0 0.00 0.56 0.47 94 1005.6
20260506033509 54 200 3.0 8.0 0.00 0.56 0.47 94 1005.6
20260506033009 54 213 4.0 8.0 0.00 0.56 0.47 94 1005.6
20260506032508 54 215 3.0 7.0 0.00 0.56 0.47 94 1005.5
20260506032007 54 202 3.0 7.0 0.00 0.56 0.47 94 1005.5
20260506031507 55 216 4.0 7.0 0.01 0.56 0.47 94 1005.6
20260506031006 55 205 4.0 7.0 0.02 0.56 0.47 94 1005.6
20260506030506 55 193 3.0 7.0 0.02 0.56 0.47 95 1005.5
20260506030005 55 211 4.0 7.0 0.02 0.56 0.47 95 1005.6
20260506025505 55 209 3.0 6.0 0.02 0.56 0.47 95 1005.6
20260506025004 55 221 3.0 6.0 0.02 0.56 0.47 95 1005.6
20260506024505 55 227 3.0 5.0 0.02 0.56 0.47 95 1005.7
20260506024005 55 227 2.0 5.0 0.02 0.56 0.47 95 1005.6
20260506023504 55 231 3.0 5.0 0.02 0.56 0.47 95 1005.6
20260506023002 55 233 3.0 5.0 0.02 0.56 0.47 95 1005.6
20260506022502 55 234 3.0 5.0 0.02 0.56 0.47 94 1005.7
20260506022002 55 234 2.0 6.0 0.02 0.56 0.47 94 1005.6
20260506021503 55 234 1.0 6.0 0.02 0.56 0.46 94 1005.6
20260506021004 55 202 0.0 4.0 0.00 0.55 0.45 94 1005.7
20260506020505 55 202 1.0 4.0 0.00 0.55 0.45 94 1005.6
20260506020002 55 201 1.0 5.0 0.01 0.55 0.45 94 1005.6
20260506015503 55 201 2.0 4.0 0.01 0.55 0.45 94 1005.7
20260506015003 55 202 1.0 3.0 0.02 0.55 0.45 94 1005.5
20260506014501 55 202 0.0 3.0 0.04 0.55 0.45 94 1005.5
20260506014002 55 203 0.0 3.0 0.06 0.55 0.45 94 1005.7